STARLINK-11182, 60399

Orbit data source: Space-Track

STARLINK-11182, 60399 is a payload satellite owned by SpaceX/Seattle (US) in LEO that was launched on Sat, 10 Aug 2024 UTC via an FALCON 9 launch vehicle from the Air Force Eastern Test Range (AFETR). Payload-class satellites include a variety of spacecraft equipped with specific instruments for various scientific and technological missions. These include communications satellites like Starlink; space stations such as the ISS; scientific satellites like the Hubble; Earth observation satellites from companies like Planet Labs, Umbra, and HawkEye 360; GPS; miniature CubeSats for education and research; and military/defense satellites.

Loading next visibility...
Identifier
60399, 2024-141B
Orbit
LEO
Last TLE update
16 hours ago
Origin
Manufacturer
SpaceX/Seattle
Mission
Operational Commercial Communications
Bus & Motor
STARLINK V2M, Unknown motor
Mass
730 kg wet, ~700 kg dry
Launch date (UTC)
2024-08-10 (11 months ago)
Launch vehicle
FALCON 9
Launch site
Air Force Eastern Test Range (AFETR)
Object type
Payload
Rocket body
Debris
Shape & HBR
Box + 2 Pan, 29 m
Radar Cross Section
36.964 m², Large (>1 m²)

Expand to show TLE details & history

TLE from 16 hours ago
0 STARLINK-11182
1 60399U 24141B   25186.51669363  .00000570  00000-0  95712-5 0  9991
2 60399  53.1598 224.5812 0001378  90.4703 269.6473 15.69700429 52924
Epoch: 2025-07-05T12:24Z
TLE epoch observation values (Epoch: 2025-07-05T12:24:02.329Z)
Latitude
-0.00001°
Longitude
114.81788°
Altitude
360.675 km
Speed
7.694 km/s
True Right ascension
14h 58m 19s
True Declination
0° 00' 00"
Sunlit
Object was in full shadow at epoch
Visualization orbit readout
Latitude
44.92723°
Longitude
-116.42064°
Altitude
363.569 km
Speed
7.697 km/s
Apparent Right ascension
01h 52m 39s
Apparent Declination
4° 46' 28"
Sunlit
Object is in daylight
Visualization observer readout
Local Sidereal Time
16:08:07
Azimuth
43.035° NE
Elevation
-35.538°
Doppler factor
1
Orbital elements
Apogee altitude
360.943 km
Perigee altitude
359.086 km
Semi-major axis
6,738.152 km
Eccentricity
0.00014
Inclination
53.1598°
RAAN
224.5812°
Arg. of periapsis
90.4703°
True anomaly
Unknown
Mean anomaly
269.6473°
Eccentric anomaly
Unknown
Mean motion
3.92403 °/min
Orbital period
91.74 mins
BSTAR
0.0000095712
Loading maneuver chart data...
Loading SW <> Apogee altitude chart data...
Loading historical data...
Loading historical data...
Loading historical data...
Loading historical data...
Loading historical data...
Loading historical data...
Loading historical data...

STARLINK-11182 Visibility forecast

Observer location: undefined°, undefined°

Span
Click to sort rows by Start time (UTC) header in descending order
Start Az.
Max El. time (UTC)
Max El. Az.
Max El.
End time (UTC)
End Az.
5 mins2025-07-06 05:23:59.125Z233.419° WSW2025-07-06 05:25:59.125Z257.268° W43.014°2025-07-06 05:28:59.125Z47.803° ENE
|